Location: R�o Medio
(42.4667°N, 3.0167°W)
Time: 11:47:08
(UTC+00:00)

CZ-2C R/B - Pass Details

Date: 27 February 2020
Orbit: 703 x 909 km, 98.1° (Epoch: 09 April)

Event Time Altitude Azimuth Distance (km) Brightness Sun altitude
Exits shadow 19:18:41 10° 140° (SE) 2,610 5.4 -15.5°
Reaches altitude 10° 19:18:46 10° 140° (SE) 2,582 5.3 -15.5°
Maximum altitude 19:24:13 44° 70° (ENE) 1,220 3.6 -16.5°
Drops below altitude 10° 19:29:32 10° 0° (N) 2,526 5.7 -17.5°
Sets 19:31:58 0° 354° (N) 3,441 6.5 -18.0°
